This is the latest recevied weather packets stored in our database for station/object K2ATL. If no packets are shown the sender has not sent any weather packets the latest 1 day(s).
| Time | Temp. | Humidity | Pressure | Rain* | Wind** | Luminosity | Snow |
|---|---|---|---|---|---|---|---|
| 1778002752 | 22.22° C | 40% | 1100.9 hPa | 0 mm | 3.58 m/s, 111° | 892 W/m² | - |
| 1778002448 | 21.67° C | 45% | 1101.1 hPa | 0 mm | 1.34 m/s, 170° | 978 W/m² | - |
| 1778002145 | 22.78° C | 42% | 1101 hPa | 0 mm | 3.13 m/s, 135° | 826 W/m² | - |
| 1778001843 | 21.67° C | 42% | 1101.2 hPa | 0 mm | 2.68 m/s, 134° | 295 W/m² | - |
| 1778001542 | 21.11° C | 42% | 1100.8 hPa | 0 mm | 2.68 m/s, 134° | 677 W/m² | - |
| 1778001239 | 21.11° C | 41% | 1101.2 hPa | 0 mm | 2.68 m/s, 213° | 908 W/m² | - |
| 1778000936 | 21.67° C | 41% | 1101.4 hPa | 0 mm | 2.24 m/s, 155° | 957 W/m² | - |
| 1778000633 | 22.22° C | 41% | 1101.5 hPa | 0 mm | 2.68 m/s, 147° | 358 W/m² | - |
| 1778000328 | 22.22° C | 40% | 1101.2 hPa | 0 mm | 2.24 m/s, 170° | 245 W/m² | - |
| 1778000024 | 22.22° C | 42% | 1101.2 hPa | 0 mm | 1.34 m/s, 158° | 908 W/m² | - |
| 1777999720 | 21.67° C | 38% | 1101.1 hPa | 0 mm | 0.89 m/s, 166° | 819 W/m² | - |
| 1777999417 | 21.11° C | 41% | 1101 hPa | 0 mm | 1.34 m/s, 120° | 821 W/m² | - |
| 1777999115 | 21.67° C | 42% | 1100.9 hPa | 0 mm | 1.34 m/s, 140° | 951 W/m² | - |
| 1777998814 | 20.56° C | 41% | 1101.1 hPa | 0 mm | 0.89 m/s, 130° | 935 W/m² | - |
| 1777998512 | 20.56° C | 41% | 1100.9 hPa | 0 mm | 4.92 m/s, 160° | 912 W/m² | - |
| 1777998207 | 20.56° C | 42% | 1101.1 hPa | 0 mm | 3.13 m/s, 158° | 912 W/m² | - |
| 1777997905 | 20.56° C | 43% | 1101.2 hPa | 0 mm | 2.68 m/s, 150° | 929 W/m² | - |
| 1777997602 | 20.56° C | 42% | 1101.5 hPa | 0 mm | 4.02 m/s, 141° | 871 W/m² | - |
| 1777997299 | 20.56° C | 42% | 1101.4 hPa | 0 mm | 4.92 m/s, 134° | 901 W/m² | - |
| 1777996997 | 20° C | 44% | 1101.7 hPa | 0 mm | 4.02 m/s, 184° | 885 W/m² | - |
| 1777996694 | 20.56° C | 43% | 1101.6 hPa | 0 mm | 2.68 m/s, 154° | 873 W/m² | - |
| 1777996389 | 20.56° C | 43% | 1101.5 hPa | 0 mm | 0.89 m/s, 169° | 864 W/m² | - |
| 1777996086 | 20.56° C | 41% | 1101.7 hPa | 0 mm | 2.24 m/s, 140° | 858 W/m² | - |
| 1777995782 | 20.56° C | 44% | 1101.6 hPa | 0 mm | 2.68 m/s, 155° | 843 W/m² | - |
| 1777995479 | 20° C | 47% | 1101.4 hPa | 0 mm | 1.34 m/s, 99° | 826 W/m² | - |
* Rain latest hour (hover to see other rain measurements)
** Current wind speed in m/s (hover to see current wind gust speed)